Wetbulb
59.77 59.97 60.29 60.75 60.71 60.22 60.02 59.51 59.26 58.98 58.73 58.88 59.54 60.17 60.75 60.55 59.71 56.06 48.83 54.78 59.99 65.01 62.96 57.13 54.43 55.38 55.18 53.08 53.91 52.31 44.20 40.71 41.38 42.00 43.08 46.65 44.22 47.83 48.46 45.80 46.03 48.13 46.69 48.84 49.36
60.25 60.51 60.36 60.47 60.58 60.07 59.76 59.36 58.63 58.41 58.37 58.90 59.46 60.33 60.65 59.98 55.27 51.66 57.87 62.25 62.62 64.03 55.13 52.49 51.22 52.49 50.05 50.51 50.24 46.83 42.95 43.09 45.45 45.33 43.40 46.09 44.79 45.18 44.69 45.25 45.19 46.31 48.85 48.81 48.39
60.59 60.52 60.31 60.18 60.23 60.05 59.63 59.30 59.16 59.01 59.41 59.81 60.18 60.32 60.02 58.24 52.35 49.35 63.33 63.21 62.96 61.43 55.41 53.48 52.65 51.92 48.65 48.42 46.45 45.64 42.77 45.81 46.09 47.27 46.68 45.40 44.12 46.62 43.14 42.08 44.71 44.21 46.60 47.28 47.03
60.73 60.50 60.27 60.09 59.99 59.73 59.57 59.30 59.50 59.54 59.33 59.34 59.76 60.08 59.62 55.31 44.10 51.64 62.52 63.56 63.16 58.38 54.41 52.63 51.24 48.85 46.73 44.66 46.38 42.96 45.87 46.41 46.88 47.32 45.74 43.53 46.24 43.72 44.33 44.26 47.58 47.14 48.93 47.40 46.58
60.51 60.30 60.05 59.92 59.81 59.56 59.38 59.43 59.79 60.22 59.44 59.23 59.65 59.44 56.53 49.79 47.89 53.90 61.59 59.76 56.55 54.92 52.37 51.29 48.82 48.10 45.21 44.44 45.84 43.38 44.39 46.47 46.90 46.27 45.36 46.51 43.82 43.86 44.70 47.78 48.44 48.85 48.74 47.16 46.85
60.22 59.89 59.68 59.70 59.60 59.63 59.72 59.85 60.20 59.94 59.27 59.14 59.52 56.23 52.88 47.94 52.11 54.07 53.15 54.13 54.43 53.77 50.93 51.17 48.83 48.78 46.32 44.93 43.77 44.49 45.08 45.66 46.74 46.52 46.60 44.45 44.07 44.72 45.99 48.39 47.87 47.68 46.57 47.21 47.11
59.86 59.51 59.23 59.34 59.51 59.32 59.39 60.02 59.98 59.46 59.27 59.40 59.83 53.81 51.81 48.93 52.76 53.37 54.24 52.87 53.74 53.44 50.98 50.58 50.90 48.63 47.79 44.66 46.20 44.53 40.46 43.66 43.81 45.47 44.31 44.90 40.37 41.57 46.35 47.54 46.77 46.69 47.04 47.17 47.12
59.23 59.10 58.68 58.89 59.09 59.02 58.80 58.98 58.75 58.73 58.96 59.04 58.94 53.35 50.16 54.06 53.16 53.28 53.63 53.42 53.92 54.19 52.68 51.49 51.19 49.30 47.06 45.45 44.20 40.81 40.05 37.27 42.61 44.05 44.43 41.76 35.43 44.72 46.46 45.71 44.61 45.82 46.20 46.63 46.56
58.67 58.58 58.37 58.56 58.62 58.56 57.82 57.62 58.07 58.68 58.71 57.79 53.42 52.75 48.17 54.77 52.12 52.39 52.14 51.22 52.11 52.53 52.06 50.28 50.59 47.00 45.83 41.48 39.28 39.65 34.77 37.15 39.95 43.70 42.47 40.38 37.18 43.62 46.20 45.54 44.06 44.64 44.92 45.35 45.74
58.44 57.99 58.06 58.26 58.13 58.00 56.85 56.61 58.17 56.98 55.17 52.74 52.09 49.80 50.52 48.99 51.96 51.99 52.44 51.87 50.13 50.79 50.71 48.75 46.47 43.11 42.41 39.59 32.19 33.75 34.40 37.17 37.62 40.57 40.66 38.44 38.44 42.50 44.80 44.53 43.26 43.15 44.16 44.58 45.14
58.01 57.67 57.78 57.94 57.64 57.70 56.81 54.58 51.53 51.61 54.57 49.12 48.81 49.47 50.51 52.25 52.65 52.60 52.05 50.31 50.56 48.28 43.80 46.18 41.50 38.36 38.60 38.61 38.93 38.05 36.51 36.57 39.84 40.83 37.37 37.18 38.81 41.67 43.78 43.43 41.84 41.64 42.26 43.75 44.95
57.60 57.26 57.50 57.58 57.26 57.61 56.40 52.99 50.15 51.91 48.71 50.49 50.58 50.16 50.71 51.14 48.75 51.01 51.77 47.14 47.51 43.99 45.37 42.52 39.28 41.13 42.10 41.02 39.00 38.73 36.75 37.05 39.31 41.26 38.81 37.70 38.16 41.38 41.61 41.61 42.79 42.21 42.12 43.18 44.38
57.20 56.97 57.17 57.05 56.74 56.91 53.66 51.61 55.09 54.80 48.43 48.85 51.16 50.62 49.99 50.48 48.63 49.52 48.72 47.14 44.76 43.16 43.02 39.78 41.28 43.09 41.41 39.97 39.51 38.90 36.98 35.28 35.14 38.85 40.17 36.70 35.49 38.88 40.24 40.39 42.40 42.55 44.25 45.00 44.28
56.85 56.80 56.74 56.14 56.54 56.17 51.99 54.69 55.40 55.75 44.16 45.83 48.08 49.97 50.54 51.05 46.77 50.95 49.61 46.55 45.17 41.87 42.38 41.86 41.89 41.33 39.89 39.56 39.11 34.95 38.84 38.47 37.30 33.88 29.07 35.81 26.94 36.71 38.68 39.27 40.21 41.06 40.93 41.89 44.20
56.42 56.52 56.35 55.67 56.13 53.02 53.23 55.32 55.06 53.38 36.11 47.24 48.29 53.60 51.24 47.68 47.82 48.12 48.84 46.51 43.11 43.72 41.30 41.58 39.47 38.88 39.21 40.58 39.94 37.91 39.08 37.18 36.36 32.62 31.77 32.56 27.66 35.35 37.46 37.21 38.13 39.52 41.06 42.34 43.89
56.10 56.03 55.43 57.10 56.36 54.10 55.48 55.57 54.06 45.63 34.86 45.34 49.45 48.14 47.02 47.30 47.96 48.85 47.07 47.39 46.12 42.91 42.44 41.03 42.09 40.22 39.90 40.82 39.34 40.32 37.96 38.24 35.79 33.07 26.24 33.35 30.42 32.08 36.30 38.34 38.57 39.79 40.96 42.77 43.42
55.86 55.59 55.46 56.21 53.13 55.67 55.82 53.74 45.89 38.68 46.12 44.11 45.20 47.21 45.72 44.90 45.96 45.67 44.87 42.25 40.09 36.92 38.05 41.26 40.49 40.29 40.37 37.06 38.59 37.93 35.52 29.46 27.87 26.62 27.70 32.88 28.64 33.06 38.73 40.13 40.13 39.37 39.80 41.76 43.05
55.23 54.55 55.84 55.49 56.32 56.20 55.20 50.29 38.40 44.20 44.10 46.75 45.62 45.39 42.32 44.20 43.64 44.22 42.05 40.12 43.07 40.13 37.23 34.72 33.59 38.79 39.82 37.70 35.07 35.67 33.63 28.87 25.15 25.59 27.89 32.37 26.38 34.13 40.38 40.71 40.63 40.84 40.32 42.31 41.81
54.73 58.71 58.83 56.88 56.74 55.72 52.27 43.06 42.96 43.83 45.54 44.31 45.47 41.27 42.45 43.09 40.69 41.78 41.27 41.18 41.44 41.52 36.63 36.27 36.64 38.42 39.38 39.32 38.40 34.80 30.89 35.14 31.12 31.64 26.89 30.13 34.38 38.13 39.94 39.36 39.47 39.09 39.92 38.74 39.67
53.65 55.57 57.22 57.88 57.38 54.92 49.02 44.23 45.03 46.37 45.94 45.07 40.55 42.46 39.25 41.61 39.64 40.08 40.25 42.74 41.61 41.61 41.33 38.37 33.44 38.91 36.48 37.71 37.14 34.94 36.94 30.76 31.18 25.16 25.09 29.32 31.23 32.94 36.29 38.28 40.08 38.82 39.23 40.30 40.83
55.09 51.12 55.74 57.42 56.07 51.30 43.78 44.98 46.31 46.42 45.60 43.58 42.24 41.36 41.90 41.24 39.70 39.02 40.85 42.03 42.28 40.00 39.56 39.02 36.72 34.92 36.80 34.08 34.72 31.10 31.69 33.03 33.92 33.78 27.48 25.62 29.15 40.06 39.96 40.85 39.69 39.79 41.31 39.75 40.04
54.68 47.68 55.79 56.11 48.92 48.45 44.09 45.30 43.06 45.36 44.94 44.04 42.32 42.05 40.70 41.30 39.59 39.70 40.24 42.15 42.83 41.69 37.31 38.70 36.68 31.90 36.47 36.57 37.76 34.93 33.99 34.99 30.06 30.25 31.91 31.48 30.45 40.96 40.78 41.64 42.91 41.79 42.69 41.16 40.14
51.00 51.23 56.27 54.64 42.51 43.57 46.26 46.41 46.00 44.27 43.54 43.10 42.46 43.72 43.00 40.11 37.61 40.85 41.55 43.28 42.38 40.23 37.88 38.83 34.57 29.42 32.85 33.39 37.27 35.03 37.68 37.14 36.61 34.51 30.39 29.34 31.01 40.50 41.50 40.91 39.63 39.32 39.71 39.80 35.69
51.15 46.02 50.62 51.34 48.76 44.53 43.61 44.32 44.25 45.10 44.18 44.60 43.30 42.77 40.96 39.78 41.77 39.04 40.22 42.87 41.70 40.69 42.75 41.41 35.66 34.44 31.50 35.24 38.46 33.85 36.01 38.22 35.65 30.48 31.40 31.90 33.89 38.66 38.67 36.26 34.89 34.75 37.14 34.54 31.90
51.74 47.81 46.80 43.28 45.28 45.45 45.74 45.13 43.27 42.68 44.92 44.08 42.31 42.06 41.23 38.14 39.71 39.68 41.96 42.79 41.48 41.85 38.28 38.47 31.05 35.03 36.47 38.17 38.92 38.59 37.64 38.12 35.17 34.91 31.64 34.08 35.13 38.35 33.98 31.27 31.33 32.95 34.24 31.37 30.27
48.60 47.59 47.58 45.81 46.59 45.06 43.89 43.12 43.03 44.39 45.19 43.42 42.85 45.01 42.95 39.49 40.48 37.62 39.59 40.06 40.00 37.83 37.38 38.37 33.27 33.72 33.68 37.67 37.80 35.39 37.64 38.03 37.73 37.94 36.56 36.24 36.05 36.31 34.47 31.20 29.28 30.20 30.23 28.82 28.16
52.75 51.13 47.58 44.71 43.86 43.48 42.99 43.42 43.80 45.14 45.84 45.24 43.31 41.17 39.84 42.30 44.43 43.50 43.92 43.63 42.74 40.45 35.00 35.40 33.18 30.96 30.27 36.27 35.36 31.80 35.14 36.51 37.63 33.52 33.34 32.39 27.76 29.63 28.80 26.89 25.58 26.94 27.26 26.71 27.11
MSLP
1016.26 1015.96 1015.76 1015.57 1015.38 1015.21 1014.96 1014.81 1014.70 1014.65 1014.55 1014.42 1014.24 1014.02 1013.71 1013.32 1012.46 1012.15 1012.74 1013.44 1013.07 1012.59 1012.34 1011.54 1010.95 1010.68 1010.50 1010.78 1010.96 1010.97 1011.07 1010.64 1010.89 1011.20 1011.57 1012.03 1012.37 1012.65 1013.11 1013.40 1013.61 1014.13 1014.84 1015.88 1016.59
1016.26 1015.97 1015.74 1015.56 1015.40 1015.25 1014.98 1014.81 1014.72 1014.61 1014.53 1014.40 1014.26 1014.04 1013.77 1013.52 1012.88 1012.49 1013.41 1013.08 1012.78 1012.47 1011.78 1011.22 1010.75 1010.65 1010.63 1010.80 1011.04 1011.10 1011.07 1011.22 1011.52 1011.71 1011.95 1012.14 1012.54 1012.59 1013.12 1013.25 1013.58 1014.25 1015.16 1016.04 1016.60
1016.24 1016.00 1015.74 1015.56 1015.40 1015.25 1015.09 1014.91 1014.74 1014.60 1014.51 1014.41 1014.26 1014.08 1013.83 1013.65 1013.07 1012.92 1013.04 1012.73 1012.49 1012.29 1011.91 1011.54 1011.07 1010.77 1010.77 1010.94 1011.22 1011.27 1011.50 1011.67 1012.09 1012.42 1012.66 1012.61 1012.73 1012.81 1013.05 1013.18 1013.19 1013.77 1014.67 1015.81 1016.56
1016.22 1015.97 1015.74 1015.50 1015.39 1015.25 1015.07 1014.90 1014.72 1014.61 1014.52 1014.40 1014.23 1013.99 1013.74 1013.47 1013.42 1013.07 1012.78 1012.56 1012.39 1012.09 1011.74 1011.35 1011.06 1010.85 1010.83 1011.01 1011.30 1011.66 1011.94 1012.16 1012.39 1012.82 1013.06 1013.03 1012.76 1012.90 1013.02 1013.10 1013.10 1013.53 1014.17 1015.27 1016.18
1016.27 1016.02 1015.80 1015.63 1015.46 1015.24 1015.06 1014.87 1014.71 1014.59 1014.50 1014.39 1014.17 1013.94 1013.73 1013.27 1013.01 1012.68 1012.71 1012.49 1012.09 1011.79 1011.69 1011.46 1011.07 1011.08 1011.04 1011.29 1011.45 1011.55 1012.12 1012.47 1012.70 1013.10 1013.36 1013.33 1013.20 1013.26 1012.61 1012.54 1012.95 1013.59 1014.28 1015.02 1015.80
1016.35 1016.09 1015.89 1015.71 1015.47 1015.22 1014.96 1014.77 1014.66 1014.54 1014.49 1014.35 1014.17 1014.10 1013.72 1013.11 1012.91 1012.77 1012.79 1012.59 1012.49 1012.08 1011.96 1011.75 1011.81 1011.66 1011.50 1011.72 1011.90 1012.04 1012.23 1012.38 1012.73 1013.14 1013.24 1013.42 1013.19 1013.18 1012.10 1012.12 1012.90 1013.72 1014.44 1014.90 1015.50
1016.39 1016.15 1015.94 1015.68 1015.42 1015.21 1015.03 1014.85 1014.67 1014.51 1014.39 1014.29 1014.19 1013.84 1013.32 1013.33 1012.87 1012.86 1012.72 1012.84 1012.70 1012.54 1012.25 1012.43 1012.35 1012.16 1012.00 1012.01 1012.31 1012.21 1012.42 1012.26 1012.56 1012.95 1013.26 1013.51 1012.98 1012.28 1011.82 1012.36 1012.94 1013.75 1014.31 1014.84 1015.41
1016.66 1016.27 1015.91 1015.56 1015.31 1015.14 1014.97 1014.74 1014.56 1014.42 1014.23 1014.10 1014.05 1013.72 1013.23 1013.05 1012.89 1012.76 1012.63 1012.56 1012.65 1012.62 1012.64 1012.66 1012.60 1012.51 1012.44 1012.50 1012.39 1012.35 1012.22 1012.15 1012.15 1012.77 1013.33 1013.68 1012.51 1011.32 1011.58 1012.44 1013.10 1013.56 1014.23 1014.73 1015.38
1016.79 1016.38 1016.00 1015.62 1015.27 1015.02 1014.76 1014.54 1014.35 1014.19 1014.10 1013.96 1013.95 1013.51 1013.20 1013.16 1013.02 1012.88 1012.90 1012.79 1012.73 1012.74 1012.78 1012.76 1012.71 1012.66 1012.78 1012.54 1012.31 1012.20 1012.14 1012.00 1012.27 1012.50 1013.11 1013.53 1012.35 1011.72 1011.69 1012.21 1012.67 1013.11 1013.85 1014.51 1015.15
1017.04 1016.50 1015.96 1015.52 1015.18 1014.88 1014.57 1014.31 1014.03 1014.12 1013.89 1013.55 1013.32 1013.61 1013.16 1013.17 1013.07 1013.06 1012.88 1013.08 1012.82 1012.68 1012.83 1012.87 1012.77 1012.79 1012.59 1012.46 1012.88 1012.78 1012.63 1012.42 1012.51 1012.62 1012.95 1012.91 1011.72 1011.54 1011.22 1011.46 1011.98 1012.59 1013.20 1013.94 1014.66
1017.17 1016.64 1016.11 1015.61 1015.07 1014.65 1014.16 1014.18 1014.57 1014.45 1013.54 1013.66 1013.46 1013.17 1013.10 1013.17 1013.24 1012.94 1013.05 1012.91 1012.75 1012.82 1012.64 1012.60 1013.02 1012.78 1012.81 1013.15 1013.24 1013.27 1013.21 1013.01 1012.28 1012.71 1012.98 1012.39 1011.35 1010.44 1010.28 1010.45 1011.20 1012.13 1012.64 1013.22 1013.91
1017.05 1016.46 1015.91 1015.46 1014.97 1014.46 1014.43 1014.46 1015.72 1016.02 1014.65 1013.63 1013.41 1013.31 1013.38 1013.53 1013.23 1012.98 1012.94 1012.99 1012.62 1012.59 1012.46 1012.89 1012.93 1012.91 1013.23 1013.45 1013.58 1013.48 1013.40 1012.97 1012.62 1012.84 1013.18 1012.09 1011.01 1009.62 1009.31 1009.61 1010.28 1011.33 1012.23 1012.81 1013.43
1017.02 1016.42 1015.77 1015.31 1014.90 1014.63 1014.96 1015.91 1015.99 1015.76 1015.11 1013.80 1013.36 1013.27 1013.44 1013.61 1013.15 1013.13 1013.20 1013.00 1012.76 1012.57 1012.56 1012.92 1013.05 1013.26 1013.52 1013.52 1013.53 1013.44 1013.42 1013.42 1013.86 1013.44 1012.50 1012.45 1010.88 1009.43 1009.54 1009.81 1010.13 1010.77 1011.57 1012.34 1013.05
1017.20 1016.49 1015.75 1015.14 1015.18 1015.10 1015.62 1016.07 1015.88 1015.80 1014.96 1014.01 1013.42 1013.39 1013.41 1013.34 1013.39 1013.32 1013.51 1013.67 1013.02 1012.91 1012.84 1012.94 1013.26 1013.46 1013.66 1013.64 1013.56 1013.84 1013.82 1014.14 1014.34 1014.44 1013.88 1012.91 1011.84 1009.71 1009.55 1009.83 1010.33 1010.78 1011.49 1012.13 1012.70
1017.42 1016.73 1016.12 1015.53 1015.55 1015.66 1016.41 1016.03 1015.89 1015.79 1015.01 1013.80 1013.33 1013.31 1013.22 1013.46 1013.39 1013.49 1013.73 1013.57 1013.29 1013.00 1013.35 1012.84 1013.25 1013.58 1013.75 1013.50 1013.58 1013.96 1014.23 1014.44 1014.70 1014.99 1014.54 1012.97 1012.88 1009.94 1009.35 1009.50 1009.76 1010.20 1010.83 1011.58 1012.28
1017.62 1016.88 1016.13 1015.64 1015.71 1016.48 1016.22 1016.00 1015.86 1015.56 1014.14 1013.42 1013.07 1013.15 1013.15 1013.03 1013.05 1013.24 1013.54 1013.64 1013.52 1013.40 1013.21 1013.17 1013.54 1013.72 1013.70 1013.78 1013.98 1014.20 1014.32 1013.97 1014.76 1015.16 1014.84 1012.66 1012.44 1010.53 1009.35 1009.17 1009.42 1009.68 1010.34 1011.00 1011.98
1017.71 1017.20 1016.51 1016.02 1016.37 1016.29 1016.16 1015.91 1015.66 1014.51 1013.49 1013.40 1013.12 1013.04 1013.04 1012.84 1012.78 1013.02 1013.13 1013.30 1013.38 1013.45 1013.12 1013.06 1013.38 1013.68 1014.04 1014.14 1014.30 1014.64 1014.81 1015.00 1015.30 1015.43 1014.05 1012.91 1012.52 1010.07 1008.85 1008.95 1009.29 1009.82 1010.26 1010.90 1011.74
1017.45 1017.15 1016.61 1016.35 1016.27 1016.19 1015.98 1015.66 1014.98 1013.56 1013.09 1013.23 1013.15 1012.92 1012.99 1012.80 1012.78 1012.78 1012.91 1012.66 1012.31 1012.99 1013.34 1013.26 1013.39 1013.76 1014.10 1014.20 1014.43 1014.65 1015.12 1015.68 1015.51 1014.93 1013.87 1012.99 1011.73 1009.28 1008.54 1009.11 1009.65 1010.08 1010.56 1011.08 1011.96
1016.98 1016.40 1016.06 1016.17 1016.16 1016.09 1015.84 1015.21 1014.04 1013.69 1013.57 1013.42 1012.90 1012.90 1012.64 1012.90 1013.12 1012.70 1012.35 1012.08 1012.12 1012.61 1013.15 1012.96 1013.20 1013.70 1014.05 1014.32 1014.74 1015.12 1015.37 1015.29 1015.37 1014.79 1014.22 1012.17 1010.27 1008.93 1008.94 1009.59 1009.94 1010.37 1010.78 1011.33 1011.99
1017.74 1016.46 1015.70 1015.88 1015.96 1015.96 1015.72 1014.62 1013.88 1013.86 1013.85 1013.75 1013.44 1012.90 1012.72 1012.64 1012.94 1012.67 1011.93 1011.62 1012.13 1012.56 1012.98 1013.22 1013.62 1013.62 1014.65 1014.94 1015.03 1015.18 1015.59 1015.69 1016.00 1016.14 1014.24 1011.71 1010.40 1009.43 1009.51 1009.81 1010.11 1010.56 1010.86 1011.32 1012.02
1017.81 1016.68 1015.95 1015.77 1015.95 1015.76 1015.22 1014.31 1014.14 1014.19 1014.27 1014.17 1013.70 1013.35 1013.04 1012.79 1012.70 1012.77 1012.14 1011.94 1012.25 1013.11 1013.54 1013.78 1014.10 1014.38 1014.71 1014.80 1014.59 1015.71 1015.57 1015.86 1016.18 1016.59 1015.32 1013.38 1010.95 1009.52 1009.74 1009.90 1010.47 1010.95 1011.16 1011.39 1012.10
1017.98 1016.87 1015.71 1015.61 1016.01 1014.94 1014.62 1014.52 1015.01 1014.51 1014.69 1014.50 1014.39 1014.02 1013.66 1013.49 1013.23 1013.09 1012.53 1012.42 1012.67 1013.28 1013.90 1014.07 1014.36 1014.29 1013.86 1013.86 1014.02 1014.50 1014.88 1015.25 1016.17 1016.45 1015.85 1014.65 1011.18 1009.66 1010.11 1010.78 1011.72 1012.15 1012.21 1012.54 1012.80
1018.73 1016.96 1015.60 1015.50 1015.52 1014.86 1014.64 1014.56 1014.62 1014.71 1014.68 1014.66 1014.45 1014.23 1014.14 1014.16 1013.98 1013.07 1012.93 1013.14 1013.48 1014.01 1014.23 1014.30 1014.51 1014.48 1014.15 1014.65 1014.56 1014.77 1015.09 1015.52 1016.17 1016.84 1015.58 1014.86 1011.84 1010.63 1011.26 1012.92 1013.45 1013.74 1013.95 1014.17 1014.93
1019.38 1017.40 1015.94 1015.65 1015.50 1015.52 1015.30 1014.86 1014.86 1014.70 1014.81 1014.71 1014.57 1014.59 1014.67 1014.38 1014.33 1013.44 1013.39 1013.41 1013.92 1014.63 1015.07 1015.30 1014.97 1014.71 1014.18 1013.74 1014.13 1015.04 1015.46 1015.63 1016.11 1015.91 1014.87 1013.87 1012.18 1012.49 1013.37 1014.46 1015.51 1015.83 1015.72 1016.39 1017.31
1019.36 1017.80 1017.56 1016.52 1015.98 1016.21 1015.94 1015.66 1015.40 1015.18 1014.93 1014.93 1014.74 1014.75 1014.79 1014.58 1014.23 1013.82 1013.75 1014.01 1014.41 1015.05 1015.67 1016.37 1015.79 1015.32 1014.53 1014.32 1014.36 1014.24 1014.40 1014.86 1014.94 1014.69 1014.95 1013.07 1014.11 1014.43 1016.07 1017.10 1017.91 1018.09 1018.15 1018.66 1019.47
1019.50 1018.42 1017.92 1017.37 1016.96 1016.66 1016.43 1015.65 1015.41 1015.11 1015.06 1014.95 1014.82 1014.66 1014.70 1014.65 1014.55 1014.45 1014.62 1015.07 1015.07 1015.66 1016.22 1017.03 1016.55 1016.16 1014.86 1014.98 1014.74 1013.61 1014.00 1013.99 1014.05 1014.00 1014.48 1015.03 1015.52 1017.07 1017.92 1018.81 1019.66 1020.30 1020.43 1020.70 1021.25
1019.07 1018.65 1018.63 1017.76 1017.29 1016.85 1016.16 1015.69 1015.26 1015.25 1014.96 1014.96 1015.02 1014.87 1014.78 1014.74 1014.76 1014.76 1014.97 1015.14 1015.30 1015.50 1015.97 1016.67 1016.78 1016.53 1014.45 1014.81 1014.80 1013.71 1012.89 1013.14 1013.42 1014.92 1015.98 1016.64 1018.74 1019.35 1019.70 1020.74 1021.76 1022.09 1022.38 1022.58 1023.01
Wind_Speed
10 10 9 9 8 8 7 6 5 4 4 5 7 8 9 12 15 2 7 6 7 14 12 8 6 1 4 3 2 2 3 1 3 2 3 6 3 5 3 4 3 4 3 8 8
11 10 9 9 8 7 7 6 5 4 4 5 6 8 10 11 6 8 3 7 8 10 7 8 5 4 2 1 1 2 2 5 5 4 3 3 1 3 3 6 6 6 8 8 7
12 11 10 9 8 7 6 6 4 4 4 5 6 8 10 8 5 5 7 9 9 9 6 6 5 5 2 2 2 3 3 2 3 5 4 4 3 5 4 6 7 5 13 10 7
14 12 11 10 8 7 6 5 5 5 5 6 7 8 8 4 2 4 9 8 10 7 5 4 4 2 2 1 1 2 0 3 4 3 2 4 4 5 7 9 6 4 8 10 9
15 13 12 11 9 7 6 5 6 6 7 7 8 8 4 4 5 6 8 8 5 5 5 5 4 3 2 3 4 2 3 1 3 1 5 7 8 7 10 7 8 5 3 10 9
16 14 13 11 10 9 8 7 6 6 8 8 8 4 4 1 3 7 6 6 8 8 7 8 6 7 3 3 4 3 2 5 5 6 5 6 8 2 6 6 8 7 8 7 9
18 15 13 12 11 10 9 8 7 7 8 8 7 4 5 3 1 4 2 2 4 5 4 4 5 4 6 3 1 1 4 8 7 6 2 5 9 14 9 5 7 8 7 8 8
18 16 14 13 11 10 9 8 8 8 7 8 5 4 1 2 6 4 5 2 3 3 3 3 6 2 4 1 4 4 4 4 5 6 3 3 9 7 8 9 9 9 7 8 8
20 16 15 14 11 10 9 8 9 9 7 6 3 3 2 2 1 3 3 4 4 1 1 2 3 2 1 4 3 3 4 5 1 7 2 5 8 4 8 9 9 9 9 8 8
19 17 16 14 12 10 10 6 3 7 4 5 5 3 2 2 2 3 1 3 3 2 3 3 3 3 4 5 2 4 5 7 7 4 7 9 20 14 13 14 11 9 10 10 9
19 16 14 13 12 10 7 3 2 2 3 3 3 3 2 4 2 3 2 3 3 4 3 4 1 2 5 3 4 4 6 9 6 4 4 8 16 16 9 9 9 9 8 9 10
20 18 15 13 11 11 3 3 3 1 4 3 1 2 1 0 3 3 5 3 3 5 2 2 4 5 3 1 3 6 9 8 1 3 5 7 21 14 2 4 10 11 9 7 8
22 20 17 14 10 4 6 4 3 4 4 3 1 2 2 2 3 2 7 2 3 4 2 4 2 4 1 5 7 7 7 3 4 8 9 7 9 4 1 2 4 3 7 7 9
22 20 18 16 2 3 4 4 3 3 3 4 3 2 3 1 2 2 2 2 4 3 4 5 3 2 4 6 2 5 5 4 7 7 4 4 7 5 6 5 6 7 5 6 7
21 20 16 10 5 3 3 4 4 2 5 1 3 2 2 3 1 3 1 3 4 1 0 4 4 4 4 3 3 2 2 6 4 4 6 2 1 7 4 3 3 10 11 10 8
20 19 20 2 3 2 4 4 2 0 6 2 1 1 3 6 4 2 3 3 1 3 6 3 2 2 2 1 2 7 6 9 6 1 2 5 5 7 2 5 3 4 7 10 10
20 15 9 4 2 4 4 2 1 3 1 3 1 0 2 4 2 2 2 4 4 3 4 5 4 3 0 3 2 3 4 5 3 1 7 4 1 11 2 6 4 4 5 8 9
21 13 1 1 2 3 2 2 3 2 5 1 1 5 4 4 3 2 3 5 6 2 3 3 6 7 7 2 1 2 1 4 6 3 7 6 7 8 6 8 6 5 4 6 6
22 3 2 2 1 2 2 3 3 4 2 5 5 2 5 3 2 4 8 4 3 7 5 4 5 2 1 2 1 3 4 1 4 5 5 6 6 5 8 6 5 4 4 4 5
5 3 2 1 1 2 2 5 2 2 2 3 3 0 4 2 3 5 4 3 4 1 4 3 7 3 3 1 3 3 3 1 0 5 7 4 6 3 5 6 5 2 6 7 7
3 4 2 0 1 2 4 2 1 3 1 3 4 4 6 7 1 4 7 2 3 4 2 4 5 2 5 7 7 3 3 4 1 4 4 5 5 5 6 7 6 4 4 4 7
3 4 2 2 3 3 3 3 1 1 2 2 2 3 4 5 5 6 7 3 4 7 4 2 4 5 8 4 5 2 2 7 4 3 3 3 8 6 9 7 7 8 12 8 11
5 4 2 1 3 3 2 3 2 4 4 4 4 5 2 3 6 8 7 2 3 2 2 4 5 5 5 2 3 2 2 3 3 2 10 8 8 4 9 11 11 12 12 9 12
4 4 2 2 2 3 6 6 6 2 3 3 3 2 4 6 8 8 5 2 4 3 3 4 5 8 15 13 2 4 7 8 12 6 8 14 23 14 12 13 15 15 12 17 16
3 3 2 4 3 5 7 7 12 9 6 3 4 7 8 7 9 13 5 6 4 4 2 2 8 9 12 14 15 22 21 20 15 20 14 19 16 14 11 11 13 12 14 15 14
4 2 0 4 7 10 7 7 12 13 13 11 13 12 8 8 9 13 11 5 6 3 3 1 5 2 11 12 18 24 21 22 23 25 22 24 21 8 9 11 13 13 12 13 12
3 1 2 3 5 7 8 11 10 10 5 6 8 5 6 9 6 4 6 8 11 8 8 6 4 3 16 6 8 13 15 18 14 8 6 6 7 10 11 11 10 10 11 12 10
Wind_Direction
5 0 359 359 354 353 349 347 345 341 320 307 309 316 325 333 312 176 44 326 308 317 316 257 247 237 237 125 320 287 280 40 78 160 77 110 232 134 80 290 146 117 37 104 110
6 3 359 357 356 352 354 358 352 338 325 316 318 325 327 333 280 69 353 328 334 332 326 342 51 229 123 111 315 318 299 40 9 45 1 109 257 314 177 217 218 156 118 121 151
5 3 360 357 357 355 351 353 347 338 332 329 327 323 320 319 274 54 356 352 341 320 290 296 296 295 117 296 19 10 360 77 96 32 354 311 257 227 263 255 251 204 173 155 177
3 2 359 354 353 349 346 339 332 330 333 332 327 322 321 262 35 32 358 341 319 282 260 278 239 233 313 32 133 234 324 352 95 114 283 266 314 289 233 241 95 42 108 149 177
4 1 358 352 345 339 334 333 332 330 335 331 336 332 294 230 46 9 356 339 315 301 19 344 326 336 295 109 278 307 157 190 105 190 255 276 268 252 260 245 131 124 175 157 172
3 360 355 350 346 338 333 328 321 325 324 325 334 335 254 323 318 11 358 354 9 349 34 14 14 336 50 40 318 23 282 235 179 243 248 257 270 301 254 219 158 164 190 179 177
1 357 353 351 350 345 330 317 316 312 310 313 314 292 277 84 52 331 23 26 344 12 14 30 336 312 340 160 88 288 274 212 216 221 262 28 274 230 229 175 152 189 202 186 178
358 353 349 349 345 337 323 311 301 290 298 295 306 271 11 107 335 22 344 208 93 43 50 346 343 34 342 88 225 247 200 274 141 173 149 117 280 272 158 154 201 195 207 179 180
357 352 344 339 331 323 316 301 286 283 286 275 248 226 122 153 240 19 27 347 312 215 14 287 278 331 218 219 228 234 293 329 108 186 161 174 274 195 155 188 208 200 189 191 183
354 349 343 335 327 318 308 272 306 292 234 237 268 269 152 31 9 323 109 275 299 290 243 230 228 250 239 17 337 335 335 341 296 171 206 246 263 264 246 201 205 210 191 185 186
351 346 340 329 323 316 318 250 233 199 234 339 12 315 87 349 129 188 38 288 224 225 279 162 289 248 59 38 345 315 291 284 291 94 326 251 272 275 261 198 198 199 217 192 188
350 345 341 335 322 304 279 15 64 325 277 189 242 235 87 334 251 123 317 266 211 269 154 215 241 82 80 330 283 279 269 283 351 147 317 298 294 284 251 240 186 191 206 220 165
348 344 338 335 322 331 69 59 336 316 255 143 100 311 74 300 342 36 348 1 289 279 227 273 101 120 228 266 259 273 279 357 297 321 278 309 276 164 129 341 28 73 179 200 186
347 343 336 329 29 331 53 1 327 316 267 149 173 142 193 262 246 61 24 318 230 303 346 262 112 225 262 262 204 291 32 350 310 354 297 86 286 291 145 198 184 195 193 228 193
344 339 331 359 308 49 347 319 317 248 344 82 125 108 142 248 5 164 113 216 278 348 200 249 183 208 250 265 94 300 344 266 277 290 305 252 134 267 149 162 193 195 181 191 188
340 336 325 338 90 13 310 305 254 294 257 136 115 207 252 182 193 130 214 218 6 290 211 267 99 258 333 29 223 338 293 253 186 191 296 215 156 283 183 153 116 31 171 170 170
334 332 335 306 4 325 304 244 326 219 122 129 25 226 312 238 228 205 219 204 226 297 240 168 196 121 350 261 141 236 318 321 338 302 230 151 254 237 234 157 110 113 359 155 152
326 320 212 64 323 301 245 240 265 91 54 167 231 259 231 36 203 198 271 265 195 150 295 249 302 179 167 256 82 285 164 189 276 285 282 133 238 254 123 97 80 68 29 85 144
315 203 234 105 290 270 285 273 290 32 347 350 283 255 183 153 242 216 217 247 99 190 215 307 227 121 186 80 138 131 209 342 301 267 272 225 249 337 123 117 141 165 150 201 202
316 283 152 98 287 258 276 254 120 67 299 231 269 97 311 91 206 198 259 119 163 319 85 334 301 155 107 174 233 202 351 253 209 284 273 255 284 219 114 128 131 151 225 223 187
283 308 104 298 226 231 228 249 107 111 293 253 304 293 265 300 321 292 266 187 96 149 280 341 195 172 131 200 182 149 228 206 311 205 250 314 273 139 144 109 88 354 347 47 185
290 289 190 224 280 210 274 32 360 172 163 254 276 278 267 317 287 275 246 284 98 149 204 185 295 261 237 94 74 43 263 177 157 207 239 273 256 55 111 110 36 34 21 12 67
301 269 182 120 268 286 108 161 217 197 214 186 250 220 26 283 287 236 266 110 98 206 275 186 233 302 293 116 53 37 331 230 131 223 223 247 261 174 104 52 41 25 16 7 85
290 303 229 232 136 293 318 298 276 190 263 235 285 63 262 237 236 268 289 172 128 221 15 356 254 225 254 265 26 217 235 227 214 216 260 230 267 274 16 35 28 22 5 67 62
240 257 56 307 307 2 318 297 288 286 212 170 237 223 259 278 285 274 324 355 157 119 97 278 253 254 266 285 291 275 274 261 233 240 240 265 256 295 47 52 29 17 35 54 52
286 276 152 284 294 279 270 264 276 278 274 280 275 279 278 268 275 303 313 309 277 142 172 315 272 296 270 257 260 267 263 261 251 253 241 254 265 30 53 54 38 29 30 37 36
315 71 238 220 259 256 240 263 287 320 254 250 293 306 280 280 308 285 257 248 244 227 198 186 206 208 275 263 315 277 251 247 251 49 326 260 46 20 31 55 42 36 34 31 22